Time,TemperatureF,DewpointF,PressureIn,WindDirection,WindDirectionDegrees,WindSpeedMPH,WindSpeedGustMPH,Humidity,HourlyPrecipIn,Conditions,Clouds,dailyrainin,SolarRadiationWatts/m^2,SoftwareType,DateUTC
2013-05-25 00:08:00,52.8,30.0,29.91,NNE,32,3.0,-999.0,42,-99.99,,,0.00,0,weatherlink.com 1.10,2013-05-25 06:08:00,
2013-05-25 00:23:00,51.4,29.0,29.91,NE,36,1.0,-999.0,42,-99.99,,,0.00,0,weatherlink.com 1.10,2013-05-25 06:23:00,
2013-05-25 00:38:00,51.6,27.0,29.91,NNW,327,1.0,-999.0,39,-99.99,,,0.00,0,weatherlink.com 1.10,2013-05-25 06:38:00,
2013-05-25 00:53:00,51.6,27.0,29.92,NNW,339,0.0,-999.0,39,-99.99,,,0.00,0,weatherlink.com 1.10,2013-05-25 06:53:00,
2013-05-25 01:08:00,51.8,24.0,29.92,WNW,294,1.0,-999.0,34,-99.99,,,0.00,0,weatherlink.com 1.10,2013-05-25 07:08:00,
2013-05-25 01:23:00,51.8,21.0,29.92,WNW,291,2.0,-999.0,30,-99.99,,,0.00,0,weatherlink.com 1.10,2013-05-25 07:23:00,
2013-05-25 01:38:00,52.1,21.0,29.92,WNW,290,1.0,-999.0,30,-99.99,,,0.00,0,weatherlink.com 1.10,2013-05-25 07:38:00,
2013-05-25 01:53:00,52.1,21.0,29.92,WNW,288,0.0,-999.0,30,-99.99,,,0.00,0,weatherlink.com 1.10,2013-05-25 07:53:00,
2013-05-25 02:08:00,51.9,22.0,29.92,WNW,288,2.0,-999.0,31,-99.99,,,0.00,0,weatherlink.com 1.10,2013-05-25 08:08:00,
2013-05-25 02:23:00,52.2,21.0,29.92,WNW,283,4.0,-999.0,30,-99.99,,,0.00,0,weatherlink.com 1.10,2013-05-25 08:23:00,
2013-05-25 02:38:00,52.9,21.0,29.93,WNW,291,2.0,-999.0,29,-99.99,,,0.00,0,weatherlink.com 1.10,2013-05-25 08:38:00,
2013-05-25 02:53:00,52.8,22.0,29.93,WNW,292,0.0,-999.0,30,-99.99,,,0.00,0,weatherlink.com 1.10,2013-05-25 08:53:00,
2013-05-25 03:08:00,52.9,20.0,29.92,WNW,294,5.0,-999.0,27,-99.99,,,0.00,0,weatherlink.com 1.10,2013-05-25 09:08:00,
2013-05-25 03:23:00,52.6,20.0,29.92,WNW,302,0.0,-999.0,28,-99.99,,,0.00,0,weatherlink.com 1.10,2013-05-25 09:23:00,
2013-05-25 03:38:00,51.5,20.0,29.93,WNW,296,2.0,-999.0,29,-99.99,,,0.00,0,weatherlink.com 1.10,2013-05-25 09:38:00,
2013-05-25 03:53:00,51.5,19.0,29.92,WNW,286,2.0,-999.0,28,-99.99,,,0.00,0,weatherlink.com 1.10,2013-05-25 09:53:00,
2013-05-25 04:08:00,51.0,20.0,29.92,WNW,286,0.0,-999.0,30,-99.99,,,0.00,0,weatherlink.com 1.10,2013-05-25 10:08:00,
2013-05-25 04:23:00,49.6,21.0,29.93,WSW,244,0.0,-999.0,33,-99.99,,,0.00,0,weatherlink.com 1.10,2013-05-25 10:23:00,
2013-05-25 04:38:00,49.5,23.0,29.92,WSW,250,0.0,-999.0,35,-99.99,,,0.00,0,weatherlink.com 1.10,2013-05-25 10:38:00,
2013-05-25 04:53:00,51.6,20.0,29.92,SW,229,3.0,-999.0,29,-99.99,,,0.00,0,weatherlink.com 1.10,2013-05-25 10:53:00,
2013-05-25 05:08:00,50.4,23.0,29.93,West,281,4.0,-999.0,34,-99.99,,,0.00,0,weatherlink.com 1.10,2013-05-25 11:08:00,
2013-05-25 05:23:00,48.5,22.0,29.93,West,278,0.0,-999.0,35,-99.99,,,0.00,0,weatherlink.com 1.10,2013-05-25 11:23:00,
2013-05-25 05:38:00,49.1,20.0,29.93,West,278,0.0,-999.0,32,-99.99,,,0.00,0,weatherlink.com 1.10,2013-05-25 11:38:00,
2013-05-25 05:53:00,50.3,20.0,29.93,WSW,244,0.0,-999.0,30,-99.99,,,0.00,7,weatherlink.com 1.10,2013-05-25 11:53:00,
2013-05-25 06:08:00,52.1,19.0,29.92,SSW,202,0.0,-999.0,27,-99.99,,,0.00,14,weatherlink.com 1.10,2013-05-25 12:08:00,
2013-05-25 06:23:00,52.1,19.0,29.93,South,186,1.0,-999.0,27,-99.99,,,0.00,26,weatherlink.com 1.10,2013-05-25 12:23:00,
2013-05-25 06:38:00,52.6,19.0,29.93,SE,128,4.0,-999.0,27,-99.99,,,0.00,35,weatherlink.com 1.10,2013-05-25 12:38:00,
2013-05-25 06:53:00,52.1,24.0,29.95,WNW,288,0.0,-999.0,34,-99.99,,,0.00,79,weatherlink.com 1.10,2013-05-25 12:53:00,
2013-05-25 07:08:00,50.2,27.0,29.94,NNE,17,0.0,-999.0,41,-99.99,,,0.00,171,weatherlink.com 1.10,2013-05-25 13:08:00,
2013-05-25 07:23:00,50.7,27.0,29.94,NNW,328,0.0,-999.0,40,-99.99,,,0.00,218,weatherlink.com 1.10,2013-05-25 13:23:00,
2013-05-25 07:38:00,53.1,32.0,29.93,North,9,3.0,-999.0,44,-99.99,,,0.00,239,weatherlink.com 1.10,2013-05-25 13:38:00,
2013-05-25 07:53:00,54.2,30.0,29.93,North,360,2.0,-999.0,39,-99.99,,,0.00,304,weatherlink.com 1.10,2013-05-25 13:53:00,
2013-05-25 08:09:00,55.3,29.0,29.93,NNW,339,3.0,-999.0,36,-99.99,,,0.00,350,weatherlink.com 1.10,2013-05-25 14:09:00,
2013-05-25 08:24:00,56.2,29.0,29.93,WNW,301,3.0,-999.0,35,-99.99,,,0.00,399,weatherlink.com 1.10,2013-05-25 14:24:00,
2013-05-25 08:39:00,57.7,27.0,29.92,NW,321,3.0,-999.0,31,-99.99,,,0.00,443,weatherlink.com 1.10,2013-05-25 14:39:00,
2013-05-25 08:54:00,59.8,29.0,29.92,NNW,336,1.0,-999.0,31,-99.99,,,0.00,489,weatherlink.com 1.10,2013-05-25 14:54:00,
2013-05-25 09:09:00,60.9,31.0,29.91,North,360,3.0,-999.0,33,-99.99,,,0.00,533,weatherlink.com 1.10,2013-05-25 15:09:00,
2013-05-25 09:24:00,61.7,29.0,29.91,NW,307,0.0,-999.0,29,-99.99,,,0.00,577,weatherlink.com 1.10,2013-05-25 15:24:00,
2013-05-25 09:39:00,62.1,28.0,29.90,NNW,348,2.0,-999.0,27,-99.99,,,0.00,619,weatherlink.com 1.10,2013-05-25 15:39:00,
2013-05-25 09:54:00,64.1,26.0,29.90,NNW,331,0.0,-999.0,24,-99.99,,,0.00,649,weatherlink.com 1.10,2013-05-25 15:54:00,
2013-05-25 10:09:00,66.1,25.0,29.89,NW,317,0.0,-999.0,21,-99.99,,,0.00,325,weatherlink.com 1.10,2013-05-25 16:09:00,
2013-05-25 10:24:00,67.1,28.0,29.89,NNE,20,3.0,-999.0,23,-99.99,,,0.00,69,weatherlink.com 1.10,2013-05-25 16:24:00,
2013-05-25 10:39:00,67.7,30.0,29.88,NNE,32,4.0,-999.0,24,-99.99,,,0.00,65,weatherlink.com 1.10,2013-05-25 16:39:00,
2013-05-25 10:54:00,68.2,28.0,29.87,NE,37,0.0,-999.0,22,-99.99,,,0.00,67,weatherlink.com 1.10,2013-05-25 16:54:00,
2013-05-25 11:09:00,68.8,25.0,29.86,East,88,3.0,-999.0,19,-99.99,,,0.00,65,weatherlink.com 1.10,2013-05-25 17:09:00,
2013-05-25 11:24:00,69.6,28.0,29.86,ESE,115,5.0,-999.0,21,-99.99,,,0.00,65,weatherlink.com 1.10,2013-05-25 17:24:00,
2013-05-25 11:39:00,70.1,22.0,29.85,SSE,166,4.0,-999.0,16,-99.99,,,0.00,67,weatherlink.com 1.10,2013-05-25 17:39:00,
2013-05-25 11:54:00,70.2,26.0,29.85,ESE,110,4.0,-999.0,19,-99.99,,,0.00,67,weatherlink.com 1.10,2013-05-25 17:54:00,
2013-05-25 12:10:00,70.7,25.0,29.84,SE,128,12.0,-999.0,18,-99.99,,,0.00,69,weatherlink.com 1.10,2013-05-25 18:10:00,
2013-05-25 12:25:00,72.1,28.0,29.83,ENE,69,11.0,-999.0,19,-99.99,,,0.00,721,weatherlink.com 1.10,2013-05-25 18:25:00,
2013-05-25 12:40:00,74.1,28.0,29.82,East,96,13.0,-999.0,18,-99.99,,,0.00,940,weatherlink.com 1.10,2013-05-25 18:40:00,
2013-05-25 12:55:00,75.0,24.0,29.82,ESE,112,2.0,-999.0,15,-99.99,,,0.00,954,weatherlink.com 1.10,2013-05-25 18:55:00,
2013-05-25 13:10:00,76.5,24.0,29.81,South,186,12.0,-999.0,14,-99.99,,,0.00,963,weatherlink.com 1.10,2013-05-25 19:10:00,
2013-05-25 13:25:00,76.5,20.0,29.81,South,179,5.0,-999.0,12,-99.99,,,0.00,1065,weatherlink.com 1.10,2013-05-25 19:25:00,
2013-05-25 13:40:00,76.6,20.0,29.79,SSW,209,13.0,-999.0,12,-99.99,,,0.00,1002,weatherlink.com 1.10,2013-05-25 19:40:00,
2013-05-25 13:55:00,76.1,18.0,29.79,SW,229,10.0,-999.0,11,-99.99,,,0.00,977,weatherlink.com 1.10,2013-05-25 19:55:00,
2013-05-25 14:10:00,76.4,18.0,29.79,South,174,8.0,-999.0,11,-99.99,,,0.00,954,weatherlink.com 1.10,2013-05-25 20:10:00,
2013-05-25 14:25:00,77.1,16.0,29.78,SSW,203,24.0,-999.0,10,-99.99,,,0.00,949,weatherlink.com 1.10,2013-05-25 20:25:00,
2013-05-25 14:40:00,76.2,16.0,29.78,SSW,200,12.0,-999.0,10,-99.99,,,0.00,851,weatherlink.com 1.10,2013-05-25 20:40:00,
2013-05-25 14:55:00,76.6,16.0,29.78,SW,227,17.0,-999.0,10,-99.99,,,0.00,550,weatherlink.com 1.10,2013-05-25 20:55:00,
2013-05-25 15:10:00,76.5,13.0,29.78,SW,218,16.0,-999.0,9,-99.99,,,0.00,666,weatherlink.com 1.10,2013-05-25 21:10:00,
2013-05-25 15:25:00,77.0,16.0,29.78,SSW,213,9.0,-999.0,10,-99.99,,,0.00,867,weatherlink.com 1.10,2013-05-25 21:25:00,
2013-05-25 15:40:00,78.1,15.0,29.78,SSW,204,6.0,-999.0,9,-99.99,,,0.00,849,weatherlink.com 1.10,2013-05-25 21:40:00,
2013-05-25 15:55:00,78.1,12.0,29.77,West,263,13.0,-999.0,8,-99.99,,,0.00,782,weatherlink.com 1.10,2013-05-25 21:55:00,
2013-05-25 16:10:00,78.0,12.0,29.77,West,271,9.0,-999.0,8,-99.99,,,0.00,802,weatherlink.com 1.10,2013-05-25 22:10:00,
2013-05-25 16:25:00,77.9,17.0,29.77,WSW,240,17.0,-999.0,10,-99.99,,,0.00,747,weatherlink.com 1.10,2013-05-25 22:25:00,
2013-05-25 16:40:00,77.6,17.0,29.76,WSW,248,20.0,-999.0,10,-99.99,,,0.00,675,weatherlink.com 1.10,2013-05-25 22:40:00,
2013-05-25 16:55:00,77.6,21.0,29.76,SW,228,8.0,-999.0,12,-99.99,,,0.00,684,weatherlink.com 1.10,2013-05-25 22:55:00,
2013-05-25 17:10:00,76.1,18.0,29.75,SSW,196,7.0,-999.0,11,-99.99,,,0.00,353,weatherlink.com 1.10,2013-05-25 23:10:00,
2013-05-25 17:25:00,76.8,18.0,29.76,SSW,213,6.0,-999.0,11,-99.99,,,0.00,587,weatherlink.com 1.10,2013-05-25 23:25:00,
2013-05-25 17:40:00,77.2,16.0,29.75,SW,234,15.0,-999.0,10,-99.99,,,0.00,550,weatherlink.com 1.10,2013-05-25 23:40:00,
2013-05-25 17:55:00,77.8,14.0,29.75,West,259,11.0,-999.0,9,-99.99,,,0.00,302,weatherlink.com 1.10,2013-05-25 23:55:00,
2013-05-25 18:10:00,77.3,14.0,29.75,SW,234,11.0,-999.0,9,-99.99,,,0.00,448,weatherlink.com 1.10,2013-05-26 00:10:00,
2013-05-25 18:25:00,77.5,14.0,29.75,SW,226,9.0,-999.0,9,-99.99,,,0.00,371,weatherlink.com 1.10,2013-05-26 00:25:00,
2013-05-25 18:40:00,77.2,19.0,29.75,WSW,247,10.0,-999.0,11,-99.99,,,0.00,323,weatherlink.com 1.10,2013-05-26 00:40:00,
2013-05-25 18:55:00,76.8,16.0,29.75,WSW,240,15.0,-999.0,10,-99.99,,,0.00,274,weatherlink.com 1.10,2013-05-26 00:55:00,
2013-05-25 19:10:00,76.6,18.0,29.75,WSW,237,7.0,-999.0,11,-99.99,,,0.00,121,weatherlink.com 1.10,2013-05-26 01:10:00,
2013-05-25 19:25:00,75.8,18.0,29.76,WSW,255,9.0,-999.0,11,-99.99,,,0.00,155,weatherlink.com 1.10,2013-05-26 01:25:00,
2013-05-25 19:40:00,74.9,19.0,29.76,WSW,245,9.0,-999.0,12,-99.99,,,0.00,56,weatherlink.com 1.10,2013-05-26 01:40:00,
2013-05-25 19:55:00,73.6,21.0,29.76,WSW,244,11.0,-999.0,14,-99.99,,,0.00,39,weatherlink.com 1.10,2013-05-26 01:55:00,
2013-05-25 20:10:00,72.1,22.0,29.77,WSW,249,6.0,-999.0,15,-99.99,,,0.00,16,weatherlink.com 1.10,2013-05-26 02:10:00,
2013-05-25 20:25:00,70.9,21.0,29.77,WSW,248,9.0,-999.0,15,-99.99,,,0.00,9,weatherlink.com 1.10,2013-05-26 02:25:00,
2013-05-25 20:40:00,69.9,22.0,29.78,West,259,3.0,-999.0,16,-99.99,,,0.00,0,weatherlink.com 1.10,2013-05-26 02:40:00,
2013-05-25 20:55:00,68.8,21.0,29.78,West,265,2.0,-999.0,16,-99.99,,,0.00,0,weatherlink.com 1.10,2013-05-26 02:55:00,
2013-05-25 21:10:00,67.9,21.0,29.79,West,263,3.0,-999.0,17,-99.99,,,0.00,0,weatherlink.com 1.10,2013-05-26 03:10:00,
2013-05-25 21:25:00,67.3,21.0,29.80,WNW,284,3.0,-999.0,17,-99.99,,,0.00,0,weatherlink.com 1.10,2013-05-26 03:25:00,
2013-05-25 21:40:00,66.4,21.0,29.81,WNW,300,2.0,-999.0,18,-99.99,,,0.00,0,weatherlink.com 1.10,2013-05-26 03:40:00,
2013-05-25 21:55:00,66.1,24.0,29.82,NNE,26,2.0,-999.0,20,-99.99,,,0.00,0,weatherlink.com 1.10,2013-05-26 03:55:00,
2013-05-25 22:10:00,62.1,28.0,29.82,North,5,4.0,-999.0,28,-99.99,,,0.00,0,weatherlink.com 1.10,2013-05-26 04:10:00,
2013-05-25 22:25:00,61.7,33.0,29.83,NE,44,6.0,-999.0,34,-99.99,,,0.00,0,weatherlink.com 1.10,2013-05-26 04:25:00,
2013-05-25 22:40:00,59.6,32.0,29.84,NNE,28,7.0,-999.0,36,-99.99,,,0.00,0,weatherlink.com 1.10,2013-05-26 04:40:00,
2013-05-25 22:55:00,59.9,35.0,29.84,NNE,32,9.0,-999.0,40,-99.99,,,0.00,0,weatherlink.com 1.10,2013-05-26 04:55:00,
2013-05-25 23:10:00,60.3,36.0,29.84,NNE,32,3.0,-999.0,40,-99.99,,,0.00,0,weatherlink.com 1.10,2013-05-26 05:10:00,
2013-05-25 23:25:00,60.9,36.0,29.84,NNE,17,6.0,-999.0,39,-99.99,,,0.00,0,weatherlink.com 1.10,2013-05-26 05:25:00,
2013-05-25 23:40:00,60.7,35.0,29.84,NE,42,6.0,-999.0,38,-99.99,,,0.00,0,weatherlink.com 1.10,2013-05-26 05:40:00,
2013-05-25 23:55:00,60.1,35.0,29.84,NE,46,7.0,-999.0,39,-99.99,,,0.00,0,weatherlink.com 1.10,2013-05-26 05:55:00,